Hourly Data Report for April 09, 2017

OTTAWA INTL A
ONTARIO

45°19'00.000" N
75°40'00.000" W
114.90 m
6106001
71628
YOW

Download Data

Hourly Data (April 2017)
Hourly Data Report for April 9, 2017
TIME
LST
Temp Definition
°C
Dew Point Definition
°C
Rel Hum Definition
%
Precip. Amount Definition
mm

Wind Dir Definition
10's deg

Wind Spd Definition
km/h
Visibility Definition
km
Stn Press Definition
kPa
Hmdx Definition


Wind Chill Definition


Weather Definition


00:00 1.3 -4.4 66   24 12 24.1 100.04     LegendNANA
01:00 1.0 -5.1 64   23 9 24.1 100.04     Clear
02:00 1.8 -5.4 59   23 8 24.1 100.08     LegendNANA
03:00 0.4 -5.2 66   20 11 24.1 100.10     LegendNANA
04:00 0.7 -5.1 65   20 8 24.1 100.16     Mainly Clear
05:00 -0.9 -5.3 72   22 9 24.1 100.20   -4 LegendNANA
06:00 0.4 -4.6 69   21 6 24.1 100.25     LegendNANA
07:00 2.8 -3.3 64   19 8 24.1 100.31     Mainly Clear
08:00 5.1 -3.7 53   18 14 24.1 100.32     LegendNANA
09:00 8.3 -2.9 45   18 14 24.1 100.32     LegendNANA
10:00 10.9 -0.8 44   17 14 24.1 100.32     Mostly Cloudy
11:00 13.2 1.3 44   18 18 24.1 100.27     LegendNANA
12:00 15.4 2.0 40   17 23 24.1 100.23     LegendNANA
13:00 15.7 0.8 36   19 27 24.1 100.18     Cloudy
14:00 15.9 -0.3 33   20 26 24.1 100.13     LegendNANA
15:00 15.4 -0.3 34   19 22 24.1 100.06     LegendNANA
16:00 14.5 -0.3 36   19 21 24.1 100.02     Cloudy
17:00 14.6 0.5 38   20 22 24.1 100.00     LegendNANA
18:00 14.0 0.3 39   20 20 24.1 99.99     LegendNANA
19:00 13.5 0.2 40   18 17 24.1 99.96     Mostly Cloudy
20:00 12.6 0.4 43   19 12 24.1 99.97     LegendNANA
21:00 10.8 0.0 47   16 4 24.1 99.97     LegendNANA
22:00 11.6 -0.2 44   21 14 24.1 99.98     Mainly Clear
23:00 11.6 -0.2 44   21 12 24.1 100.00     LegendNANA

Notes on Data Quality.

Legend

  • E = Estimated
  • M = Missing
  • NA = Not Available*
  • [empty] = Indicates an unobserved value
Date modified: